Terug naar catalogus

FENGYUN 1C DEB

ActiefSSO
NORAD 29776·DEBRIS·🇨🇳 China

Gelanceerd May 10, 1999 vanaf Taiyuan Satellite Launch Center

Loading…

Volgende Passages (komende 24 uur)

TLE

VersSource: Space-Track

Epoch: Sep 14, 2026, 12:32 UTC

1 29776U 99025BS  26257.52253008  .00000255  00000-0  17472-3 0  9999
2 29776  98.7480 281.0247 0023196 210.8792 305.4194 14.07909279  9602

Volg FENGYUN 1C DEB in realtime met AllMySat

Download on the App Store